Regional Weather Roundup
Issued by NWS Albany, NY

Home | Current Version | Previous Version | Text Only | Print | Product List | Glossary On
Versions: 1 2 3 4 5 6 7 8 9 10 11 12 13 14 15 16 17 18 19 20 21 22 23 24 25 26 27 28 29 30 31 32 33 34 35 36 37 38 39 40 41 42 43 44 45 46 47 48 49 50
000
ASUS41 KALY 071010
RWRALY

NEW YORK STATE HOURLY WEATHER ROUNDUP
NATIONAL WEATHER SERVICE ALBANY NY
600 AM EDT TUE JUL 07 2015

NOTE: "FAIR" INDICATES FEW OR NO CLOUDS BELOW 12,000 FEET WITH NO
SIGNIFICANT WEATHER AND/OR NO OBSTRUCTIONS TO VISIBILITY.

NYZ032-033-038>043-046>054-057>066-NYZ062>081-071100-
EAST


CITY           SKY/WX    TMP DP  RH WIND       PRES   REMARKS
ALBANY         MOCLDY    71  65  81 CALM      30.04S
GLENS FALLS    PTCLDY    68  65  90 CALM      30.04F
POUGHKEEPSIE   PTCLDY    71  66  84 CALM      30.04F
NEWBURGH       MOCLDY    70  68  94 VRB5      30.07S
MONTGOMERY     MOCLDY    70  68  93 CALM      30.05S
WHITE PLAINS     N/A     72  70  93 CALM      30.06S FOG
ISLIP          CLOUDY    73  72  96 S6        30.06R
NEW YORK CITY  CLOUDY    75  71  87 S8        30.04S
CENTRAL PARK   CLOUDY    76  71  85 VRB3      30.07S
$$

NYZ005>009-017-018-044>046-055-056-071100-
CENTRAL


CITY           SKY/WX    TMP DP  RH WIND       PRES   REMARKS
FULTON         CLOUDY    72  67  84 VRB5      29.95F
SYRACUSE       CLOUDY    73  69  87 SE5       29.96S
ROME           CLOUDY    69  67  93 SE3       30.01S
ELMIRA         CLOUDY    69  68  96 SE3       29.99S
BINGHAMTON     RAIN      68  67  96 S9        30.03S FOG
MONTICELLO     CLOUDY    66  64  94 E7        30.09S
$$

NYZ026>034-041>043-071100-
NORTH


CITY           SKY/WX    TMP DP  RH WIND       PRES   REMARKS
WATERTOWN      PTCLDY    74  66  76 S7G16     29.93F
FORT DRUM      NOT AVBL
MASSENA        PTCLDY    69  64  84 S3        29.94S
SARANAC LAKE   CLEAR     55  53  93 CALM      30.03S
PLATTSBURGH    MOCLDY    63  61  93 CALM      30.00R
$$

NYZ001>004-010>016-019>021-071100-
WEST


CITY           SKY/WX    TMP DP  RH WIND       PRES   REMARKS
BUFFALO        MOCLDY    71  66  84 SW5       29.95R
DUNKIRK        CLEAR     71  67  87 S8        29.95R
JAMESTOWN      CLOUDY    66  64  94 S6        30.02R
WELLSVILLE     CLOUDY    69  65  86 SW6       30.05R
ROCHESTER      CLOUDY    71  67  87 S8        29.94F
PENN YAN       PTCLDY    67  66  97 SW5       29.99R FOG
$$

             KEY
       WCI = WIND CHILL INDEX
       VSB = VISIBILITY
       HX  = HEAT INDEX
$$


USA.gov is the U.S. government's official web portal to all federal, state and local government web resources and services.